Location: Esch
(46.2667°N, 7.8667°E)
Time: 11:08:37
(UTC+00:00)

Daily predictions for brighter satellites

Satellite Brightness Start Highest point End
(mag) Time Altitude Azimuth Time Altitude Azimuth Time Altitude Azimuth
Cosmos 1898 Rocket 3.9 16:48:07 10° S 16:53:02 43° ESE 16:57:58 10° NE
Cosmos 923 Rocket 4.1 16:48:29 10° NNW 16:53:52 85° ENE 16:59:09 10° SSE
TELKOM 3 3.9 16:54:10 10° WNW 16:56:06 28° N 16:58:07 10° ENE
CZ-4C R/B 3.1 16:53:09 10° N 16:56:20 72° WNW 16:59:33 10° SSW
Cosmos 1680 Rocket 3.5 16:52:54 10° NNW 16:58:08 71° ENE 17:03:20 10° SSE
Nadezhda 4 Rocket 4.0 16:53:12 10° S 16:59:22 69° E 17:05:30 10° NNE
Meteor 2-10 Rocket 4.0 16:55:37 10° NNW 17:00:57 67° W 17:06:03 10° S
NOAA 12 4.4 16:56:53 10° S 17:02:06 75° WSW 17:07:23 10° NNW
CZ-4B R/B 2.2 17:01:57 10° NE 17:04:52 28° E 17:07:41 10° SSE
CZ-2D R/B 3.9 17:01:59 10° SE 17:05:26 33° ENE 17:08:54 10° N
Landsat 5 3.8 17:02:14 10° N 17:06:04 62° WNW 17:09:50 10° SSW
MOS 1 Rocket 4.0 17:02:50 10° NE 17:06:34 28° E 17:10:19 10° SSE
NOAA 11 4.3 17:03:57 10° SSE 17:09:28 85° WSW 17:15:00 10° NNW
Cosmos-2242 4.0 17:06:06 10° NNE 17:09:38 24° ENE 17:13:09 10° SE
NOSS 3-1 (C) 4.1 17:04:41 10° NW 17:12:10 85° NE 17:20:54 10° SE
COSMO-SKYMED 1 3.0 17:09:53 10° NNE 17:14:01 40° E 17:18:06 10° SSE
BREEZE-M DEB (TANK) 2.4 17:13:08 10° WNW 17:15:20 39° N 17:17:14 13° ENE
Cosmos 1937 Rocket 3.8 17:10:34 10° S 17:15:40 50° ESE 17:20:49 10° NNE
Cosmos 1758 Rocket 4.4 17:12:44 10° SSE 17:16:38 31° E 17:20:35 10° NNE
Aureole 3 2.8 17:14:25 10° NNW 17:17:29 75° W 17:20:27 10° S
Okean 1-7 Rocket 4.3 17:13:07 10° SSW 17:17:37 59° WNW 17:22:09 10° N
USA 290 3.0 17:18:48 10° N 17:21:40 30° ENE 17:24:32 10° SE
NOSS 2-1 (C) 3.1 17:20:23 10° SW 17:23:42 68° NW 17:27:11 10° NE
Cosmos 1833 Rocket 2.8 17:20:05 10° NNW 17:25:35 52° ENE 17:31:03 10° SE
H-2A R/B 2.6 17:23:19 10° SE 17:27:54 36° ENE 17:32:39 10° N
Meteor 1-21 Rocket 4.3 17:23:40 10° SSW 17:29:12 81° W 17:34:51 10° N
NOSS 2-1 (D) 3.4 17:26:22 10° SW 17:29:39 58° NW 17:33:05 10° NNE
Cosmos 1939 Rocket 2.9 17:26:01 10° SSE 17:30:06 84° WSW 17:34:10 10° NNW
Helios 1A Rocket 3.9 17:27:04 10° ESE 17:30:30 26° ENE 17:33:58 10° N
H-2A R/B 2.8 17:26:56 10° N 17:31:14 55° WNW 17:35:23 10° SSW
Cosmos 2344 4.3 17:22:52 10° NW 17:32:03 71° NE 17:44:52 10° SE
Cosmos 1602 Rocket 3.5 17:29:00 10° S 17:33:21 82° E 17:37:47 10° N
USA 229 DEB 3.9 17:26:18 10° NW 17:33:39 84° NE 17:41:22 10° SE
Cosmos 44 4.1 17:28:58 10° SW 17:33:42 52° NW 17:38:47 10° NNE
USA 229 3.9 17:26:25 10° NW 17:33:45 84° NE 17:41:29 10° SE
Cosmos 2026 Rocket 4.0 17:28:33 10° S 17:34:34 61° E 17:40:44 10° NNE
SeaSat 1 4.3 17:30:33 10° N 17:34:35 26° NW 17:38:37 10° WSW
CZ-3B R/B 2.0 17:32:11 10° NW 17:34:48 70° NE 17:42:30 10° ESE
Feng Yun 1-1 Rocket 4.2 17:29:55 10° SSE 17:35:24 83° ENE 17:41:04 10° NNW
CSL-04 DEB 4.4 17:31:47 10° NNE 17:35:55 89° E 17:39:55 10° SSW
SJ 16-02 3.2 17:32:50 10° WSW 17:36:44 30° WNW 17:40:39 10° N
SKYMED 3 4.5 17:33:46 10° NNE 17:38:08 73° ESE 17:42:28 10° S
YAOGAN 1 2.9 17:35:23 10° SE 17:39:26 42° ENE 17:43:32 10° N
Cosmos 990 Rocket 4.4 17:34:55 10° SSW 17:40:04 66° WNW 17:45:15 10° NNE
Cosmos 1689 Rocket 2.9 17:41:34 26° E 17:41:51 26° E 17:44:19 10° SSE
Cosmos 1844 Rocket 4.2 17:36:56 10° WSW 17:42:05 35° NW 17:47:15 10° NNE
Cosmos 1553 Rocket 4.2 17:36:16 10° N 17:42:27 48° ENE 17:48:31 10° SSE
Aureole 3 Rocket 2.5 17:39:57 10° N 17:43:12 69° E 17:47:17 10° SSE
COSMOS 2406 3.2 17:39:12 10° NNW 17:45:00 81° ENE 17:50:46 10° SSE
Cosmos 2082 Rocket 2.6 17:39:56 10° NNW 17:45:22 43° NE 17:50:46 10° SE
HJ-1C 4.3 17:47:04 26° ENE 17:47:08 26° ENE 17:49:59 10° NNE
Cosmos 1703 3.9 17:43:37 10° SSW 17:47:25 56° W 17:51:16 10° N
Cosmos 1825 Rocket 3.8 17:44:13 10° SSE 17:48:25 47° E 17:52:41 10° NNE
IRS-1C Rocket 4.0 17:43:40 10° SSE 17:48:55 81° ENE 17:54:12 10° NNW
Meteor 1-27 4.4 17:43:51 10° N 17:49:17 49° ENE 17:54:39 10° SSE
NOSS 3-1 (A) 4.1 17:41:47 10° NW 17:49:20 89° NE 17:58:05 10° SE
X-37B 1.2 17:46:42 10° W 17:49:49 51° SSW 17:51:36 22° SE
Cosmos 1812 Rocket 3.9 17:48:07 10° NNW 17:52:28 66° W 17:56:45 10° S
ISS -2.6 17:49:38 10° WNW 17:52:43 31° N 17:53:50 25° NE
Okean O Rocket 3.8 17:51:08 10° SSW 17:55:00 29° W 17:58:53 10° NW
ATLAS 5 CENTAUR R/B 4.2 17:56:38 10° NNW 17:58:11 11° N 17:59:47 10° NNE
CZ-4 R/B 1.2 17:55:04 10° SSE 17:59:05 77° ENE 18:03:04 10° N
Iridium 4 Rocket 3.5 17:55:21 10° N 18:00:46 88° W 18:05:40 10° S
SKYMED 2 4.0 17:57:50 10° N 18:02:09 64° WNW 18:06:26 10° SSW
ERS-2 2.0 17:58:38 11° NNE 18:02:10 74° ESE 18:05:47 10° S
CSL-04 Rocket 3.8 17:58:16 10° SE 18:03:29 49° ENE 18:08:47 10° N
Okean-O 2.5 18:02:08 10° SSE 18:06:34 82° ENE 18:11:02 10° NNW
CZ-4C R/B 4.3 18:04:34 10° NW 18:08:46 18° N 18:11:46 14° NE
S3M 4.0 18:03:00 10° N 18:08:58 52° ENE 18:14:56 10° SSE
USA 234 4.2 18:05:52 20° NE 18:09:34 35° N 18:15:21 10° WNW
Cosmos 1340 4.2 18:07:34 10° SW 18:11:03 36° WNW 18:14:34 10° N
Cosmos 1346 Rocket 2.6 18:07:31 10° S 18:11:27 86° E 18:15:12 11° NNE
Cosmos 1655 Rocket 4.2 18:05:53 10° SSE 18:11:45 46° E 18:17:39 10° NNE
Cosmos 2278 Rocket 2.2 18:06:19 10° SSW 18:12:00 89° ESE 18:17:11 13° NNE
Cosmos 1953 Rocket 3.5 18:10:37 10° S 18:14:53 59° E 18:17:58 18° NNE
CZ-2C R/B 3.9 18:09:47 10° S 18:15:10 57° W 18:20:50 10° NNW
SWARM C 4.3 18:14:14 10° S 18:17:32 75° E 18:18:11 53° NNE
SWARM A 4.0 18:14:20 10° S 18:17:38 80° E 18:18:52 36° N
Cosmos 2292 Rocket 3.5 18:14:55 10° S 18:19:42 56° E 18:20:41 44° NE
SAR-Lupe-4 3.5 18:17:50 21° N 18:20:06 83° WNW 18:23:41 10° SSW
Cosmos 44 Rocket 3.5 18:17:29 10° SSW 18:22:14 52° ESE 18:23:19 43° ENE
ARGOS 3.0 18:23:15 10° SSE 18:28:38 84° ENE 18:34:03 10° NNW
DMSP B5D1-3 4.4 18:23:45 10° NNE 18:28:54 81° ESE 18:34:00 10° SSW
Meteor 2-2 Rocket 4.4 18:24:40 10° N 18:30:30 53° ENE 18:34:20 22° SE
Cosmos 1869 3.5 18:27:05 10° N 18:30:10 51° NNE 18:30:10 51° NNE
Cosmos 372 Rocket 4.3 18:30:28 10° SSW 18:35:39 67° WNW 18:39:58 15° NNE
CZ-4B R/B 4.2 18:34:37 10° NNW 18:36:51 17° WNW 18:39:03 10° WSW
Cosmos 468 4.4 18:33:04 10° NNW 18:38:21 82° ENE 18:41:13 28° SSE
CZ-2C R/B 2.7 18:33:45 14° NNE 18:38:35 63° E 18:44:09 10° S
Cosmos 494 Rocket 3.9 18:37:11 10° NNW 18:42:19 62° ENE 18:42:29 62° ENE
Cosmos 2150 Rocket 3.8 18:39:40 10° SSW 18:44:49 78° ESE 18:45:58 54° NE
Cosmos 1048 Rocket 3.9 18:42:10 10° NNW 18:47:20 86° WSW 18:49:36 35° SSE
Cosmos 2297 4.1 18:47:07 10° S 18:51:24 44° SSE 18:51:24 44° SSE
SL-08 RB Rocket 3.9 18:59:18 48° SSW 19:00:24 67° WSW 19:04:53 10° NNW
H-2A R/B 3.7 19:02:50 10° SSW 19:07:21 32° W 19:12:00 10° NNW
Cosmos 1125 Rocket 3.6 19:04:16 10° SSW 19:08:41 65° SSW 19:08:41 65° SSW
Cosmos 2298 Rocket 4.5 19:06:58 10° SW 19:12:12 60° WNW 19:13:35 45° NNW
Cosmos 2266 Rocket 4.0 19:07:43 10° SSW 19:13:57 76° W 19:20:07 10° N
NOSS 2-2 (C) 4.4 19:14:48 10° NW 19:20:07 84° N 19:20:07 84° N
Cosmos 1943 Rocket 4.3 19:22:31 10° SSW 19:23:18 14° S 19:23:18 14° S
Cosmos 2082 Rocket 3.7 19:24:15 10° NW 19:29:20 34° WSW 19:33:42 13° SSW
ISS -0.4 19:26:37 10° WNW 19:26:49 11° WNW 19:26:49 11° WNW
Cosmos 2315 Rocket 4.4 19:40:31 10° NNW 19:46:33 57° W 19:46:33 57° W
ATLAS 2AS CENTAUR R/B 4.2 19:43:18 10° NNW 19:48:20 26° N 19:48:20 26° N
USA 234 4.0 19:53:13 42° NNW 19:53:13 42° NNW 19:58:01 10° NW
Cosmos 2278 Rocket 4.4 19:52:52 10° W 19:56:54 19° NW 19:59:05 16° NNW
CZ-4C R/B 4.2 19:53:25 10° NNW 19:56:58 26° N 19:56:58 26° N
